Starlink 32348

operational
NORAD ID: 61631 Int'l Des: 2024-191 Owner: SPXS Country: US Constellation: starlink
LEOCIRCULAR

About Starlink 32348

Description loading...

Live Position

Loading 3D Globe...

Upcoming Passes

Altitude History

Altitude vs Time

uPlot chart will show altitude changes over time

Two-Line Element Set

1 61631U 24191L 25352.46841123 -.00003572 00000-0 -12030-3 0 9998
2 61631 43.0040 256.7536 0001515 268.4930 91.5748 15.27592872 65078
Epoch: Dec 18, 2025 • Age: 17 hours

Current Status

Altitude 494.3 km
Velocity 7.62 km/s
Sub-Earth Point -40.50°S, 10.07°W
Launch Date Oct 23, 2024
Age 1.1 years
Type internet

Technical Details

Classification Payload
Mass 730.00 kg
Dry Mass 700.00 kg
Total Mass 730.00 kg
Length 0.30 m
Diameter 4.10 m
Span 29.00 m
Shape Box + pan
Manufacturer SPXS
Bus Type Starlink V2M
Phase Status In Orbit
Owner/State SPXS/US

Large Constellations

Loading constellations...